Terminal Aerodrome Forecast
Issued by NWS Buffalo, NY

Home | Current Version | Previous Version | Text Only | Print | Product List | Glossary On
Versions: 1 2 3 4 5 6 7 8 9 10 11 12 13 14 15 16 17 18 19 20 21 22 23 24 25 26 27 28 29 30
000
FTUS41 KBUF 211900 AAA
TAFBUF
TAF AMD
KBUF 211915Z 2119/2218 36009KT 4SM BR VCSH BKN006 OVC012
     FM212200 01010KT P6SM VCSH OVC012
     FM220100 02009KT P6SM -DZ OVC007
     FM220400 02010KT 5SM -DZ OVC012
     FM221500 02010KT P6SM OVC012=

USA.gov is the U.S. government's official web portal to all federal, state and local government web resources and services.